Location: Austin
(30.3000°N, 97.7500°W)
Time: 08:05:40
(UTC-06:00)

Cosmos 2263 - Pass Details

Date: 10 January 2026
Orbit: 829 x 865 km, 70.9° (Epoch: 22 January)

Event Time Altitude Azimuth Distance (km) Brightness Sun altitude
Rises 18:52:36 0° 343° (NNW) 3,414 7.4 -13.7°
Reaches altitude 10° 18:55:06 10° 346° (NNW) 2,470 6.6 -14.2°
Maximum altitude 19:00:44 68° 69° (ENE) 904 4.1 -15.3°
Drops below altitude 10° 19:06:17 10° 152° (SSE) 2,436 6.5 -16.5°
Sets 19:08:43 0° 155° (SSE) 3,363 7.2 -17.0°
